Temperature
30 30 30 31 32 32 32 31 31 31 32 31 31 29 28 27 26 25 23 21 20 20 19 18 18 18 18 18 18 18 18 18 18 18 17 17 17 17 17 17 17 16 16 16
30 30 32 33 33 32 32 31 31 31 32 32 30 29 28 26 26 25 23 22 21 19 19 18 18 18 18 18 18 18 18 18 18 17 17 17 17 17 17 17 17 16 16 16
30 32 33 32 32 32 32 31 31 31 32 32 30 28 26 26 26 25 24 23 21 20 19 18 18 18 18 18 18 18 18 18 17 17 17 17 17 17 17 17 17 16 16 16
31 33 33 32 32 32 31 32 32 31 30 29 29 26 26 26 26 26 25 23 22 21 19 19 18 18 18 18 18 18 18 18 17 17 17 17 17 17 17 17 17 16 16 15
31 32 32 32 32 32 32 33 32 30 27 25 25 26 25 25 25 26 25 24 23 21 20 19 19 18 18 18 18 18 18 17 17 17 17 17 17 17 17 17 17 17 16 16
32 33 33 33 33 33 33 32 31 27 25 22 24 25 26 27 27 27 26 25 23 22 21 20 19 19 19 18 18 18 18 17 17 17 17 17 17 17 17 17 17 17 16 16
30 31 33 33 32 33 32 30 28 26 23 23 25 26 26 28 29 28 27 25 24 22 21 20 20 19 19 18 18 18 18 17 17 17 17 17 17 17 17 17 17 17 17 17
29 30 32 32 32 31 31 30 28 26 26 26 25 25 27 29 29 28 27 25 24 23 22 21 20 20 19 19 18 18 18 18 18 18 18 18 18 18 17 17 17 17 17 17
30 30 32 33 33 32 31 31 31 29 28 27 25 24 26 28 28 28 27 26 25 24 23 22 21 20 20 19 19 18 18 18 18 18 18 18 18 18 17 17 17 17 17 17
31 30 32 32 32 32 32 31 30 29 27 27 25 23 23 25 26 28 28 27 26 24 24 23 22 21 20 20 19 19 19 18 18 18 18 18 18 18 18 18 17 17 17 17
32 30 31 32 31 30 30 30 29 29 28 27 25 23 24 24 26 28 28 27 26 25 24 24 23 22 21 21 20 19 19 19 18 18 18 18 18 18 18 18 18 18 18 17
32 31 30 31 31 30 29 29 29 28 27 28 27 25 27 27 28 29 28 27 26 26 25 25 24 23 22 21 21 20 19 19 19 19 18 19 18 18 18 18 18 18 18 18
31 30 29 29 29 27 27 28 29 29 29 28 27 25 27 26 27 28 28 27 26 26 25 25 24 23 23 22 22 21 20 20 19 19 19 19 19 19 18 18 18 18 18 18
29 29 29 28 27 25 24 26 28 28 28 28 27 25 25 24 25 26 27 26 26 25 25 24 24 23 23 22 22 22 21 21 20 20 19 19 19 19 19 18 18 18 18 18
28 28 29 30 29 27 26 27 28 28 29 28 28 26 24 24 24 25 26 25 25 24 23 23 22 22 22 22 22 21 21 21 21 20 20 20 19 19 19 18 18 18 17 17
25 25 27 29 29 28 28 28 29 29 29 29 28 26 26 25 25 25 25 24 23 22 22 21 21 21 21 21 21 21 21 20 20 20 19 19 19 18 18 18 17 17 17 17
22 22 24 26 28 28 27 29 29 29 29 29 28 26 25 24 24 24 23 22 21 20 20 19 18 18 19 19 19 19 19 19 19 19 18 18 18 18 17 17 17 17 16 16
19 19 21 24 26 25 27 29 29 29 29 28 27 26 25 23 22 21 21 20 19 19 18 17 17 17 17 17 18 18 18 18 18 18 17 17 17 16 16 16 16 16 15 15
19 17 18 22 24 25 26 25 25 26 27 28 26 24 23 21 21 20 19 18 18 17 16 16 16 16 16 16 16 16 16 16 16 16 16 16 16 15 15 15 15 15 15 14
19 18 19 22 23 23 24 22 23 24 24 26 25 24 23 22 21 19 18 17 16 16 16 15 15 15 15 15 15 15 15 15 14 14 14 14 14 14 14 14 14 14 14 13
20 20 21 22 23 23 22 22 24 23 23 25 24 23 23 23 21 18 17 16 16 15 15 15 14 14 14 14 14 14 13 13 13 13 13 13 13 13 13 13 13 13 13 13
19 21 22 23 22 21 21 21 22 22 24 25 24 22 21 19 18 17 16 16 15 15 14 14 14 13 13 13 13 13 12 12 12 12 12 12 12 12 12 12 12 12 12 12
17 18 18 20 20 19 19 20 21 23 23 23 22 20 19 18 17 16 16 15 15 15 14 14 13 13 12 12 12 12 11 11 11 11 11 11 11 11 11 11 11 11 12 12
17 17 18 18 18 19 19 20 22 23 22 22 21 19 19 17 16 16 15 15 14 14 14 14 13 13 12 12 12 11 11 11 11 11 11 11 11 11 11 11 11 11 11 11
17 17 18 18 18 18 19 20 21 21 21 21 20 19 18 17 16 15 15 14 14 14 13 13 13 12 12 12 11 11 11 11 10 11 11 11 11 12 11 11 11 11 11 11
19 19 19 18 19 19 19 20 20 20 20 19 18 17 17 16 15 14 14 14 13 13 13 13 12 12 12 12 11 11 10 10 10 10 10 11 11 11 11 11 11 11 11 10
Wind_Speed
16 16 15 13 10 11 13 15 14 10 7 7 7 1 5 4 5 8 9 9 8 8 9 10 10 11 12 11 10 9 10 9 7 5 5 5 5 4 5 6 8 6 4 4
17 18 18 14 11 13 14 15 13 10 8 8 7 1 6 5 3 6 9 10 10 11 11 11 11 10 12 12 11 10 10 10 8 5 4 4 4 3 4 5 6 6 4 2
20 16 12 10 13 15 15 12 12 12 13 10 8 3 4 6 6 7 9 11 11 13 14 13 12 11 12 12 12 11 11 10 8 7 5 4 4 2 4 6 5 5 5 3
19 18 15 13 13 15 14 12 14 15 14 9 7 2 3 6 8 9 10 11 12 13 13 13 14 13 13 13 12 11 11 10 8 8 7 7 6 5 5 5 6 5 5 5
20 18 16 14 14 14 14 15 16 13 10 9 10 5 4 6 6 8 11 11 12 13 14 14 14 14 14 14 13 11 11 9 9 8 7 6 5 4 4 5 7 6 5 5
23 21 17 16 15 14 13 15 14 7 4 4 10 7 3 5 7 10 12 11 13 14 14 14 13 13 13 14 13 13 11 10 9 9 8 7 5 3 4 5 7 6 6 6
23 23 21 18 18 15 11 12 10 7 1 4 9 4 3 5 7 11 13 13 13 14 15 14 14 14 13 14 14 14 13 11 11 10 8 8 6 5 5 5 6 6 5 6
20 18 17 16 17 14 11 12 9 11 10 5 2 1 3 7 9 11 13 14 13 14 14 15 14 13 13 15 14 14 14 13 12 11 9 8 8 6 6 7 5 6 4 5
21 17 13 13 13 13 12 11 10 11 14 8 0 1 4 4 7 10 12 14 14 14 14 15 15 14 14 14 14 14 15 13 13 12 10 9 9 8 7 6 7 5 4 5
22 18 16 12 11 12 11 11 9 9 8 8 1 3 1 1 3 7 10 12 13 14 15 15 15 15 14 14 13 13 14 13 12 12 11 11 10 9 8 6 7 6 5 4
23 21 20 15 11 12 9 10 9 8 7 8 3 2 6 8 7 7 10 11 12 13 14 15 15 15 15 14 14 13 13 13 12 12 11 10 10 10 10 8 7 7 6 6
21 19 17 16 8 7 9 11 11 9 8 8 6 2 3 4 5 6 10 10 12 12 12 13 14 14 14 14 14 13 13 13 12 11 11 11 10 10 10 10 9 8 8 8
13 14 16 16 9 3 6 12 13 10 8 9 7 3 1 3 4 4 8 9 9 9 9 10 10 11 12 12 12 13 13 14 14 13 12 11 10 9 9 9 9 9 9 9
10 12 16 17 7 5 8 17 16 11 9 7 4 4 5 3 2 2 6 7 7 7 8 8 8 6 7 8 8 9 10 11 11 11 11 10 9 9 8 8 8 8 8 9
9 14 17 17 10 10 13 17 16 13 11 9 4 7 10 8 6 6 7 8 8 7 7 8 8 7 6 6 6 5 4 3 4 5 5 5 6 6 6 7 7 6 7 9
5 11 15 16 14 14 16 18 16 13 11 9 3 9 12 12 9 9 9 10 10 9 9 10 10 9 8 7 7 6 6 6 6 5 4 3 2 1 1 2 3 4 5 5
6 6 11 14 14 13 16 13 11 11 9 6 4 11 15 13 11 10 11 12 12 12 13 13 12 12 11 11 10 10 9 9 9 9 8 8 6 5 4 3 3 2 2 3
3 5 6 13 11 13 8 5 4 4 5 5 10 15 16 17 15 14 14 14 15 14 14 13 13 13 13 12 12 12 13 12 11 11 10 10 9 8 7 6 5 5 4 3
4 4 7 11 12 10 6 5 4 1 1 7 15 19 20 20 18 15 15 16 16 15 14 14 14 14 14 13 12 12 13 12 12 11 10 9 8 8 8 8 7 6 5 5
9 11 10 10 9 8 3 2 3 3 1 7 16 19 20 18 12 11 14 16 16 15 14 13 14 14 13 12 12 13 12 12 11 10 9 8 7 6 7 7 6 5 5 5
11 12 15 14 9 1 4 4 4 4 3 7 14 16 16 10 12 16 17 16 16 15 15 14 14 13 12 11 11 12 11 10 9 8 8 7 6 5 5 5 4 5 4 4
4 6 8 6 4 0 3 0 1 2 4 8 14 16 18 21 22 20 18 16 15 14 14 13 12 11 10 9 10 10 9 8 7 6 6 6 6 6 6 5 4 4 4 5
2 3 2 2 2 3 3 4 1 2 7 10 16 21 24 23 21 20 17 15 14 13 12 11 11 10 9 8 8 8 6 5 5 5 4 3 3 3 3 4 5 5 4 4
2 3 0 1 2 2 2 1 2 6 10 13 19 21 22 23 21 19 16 14 12 11 10 9 9 9 8 7 7 6 5 5 5 4 4 4 3 3 2 3 4 4 4 4
0 1 2 2 2 1 2 2 5 9 12 17 19 20 21 21 20 18 15 13 11 9 8 8 7 7 6 6 6 6 6 6 6 6 5 7 6 4 3 4 4 4 3 3
2 2 3 2 1 3 6 7 10 13 16 18 20 21 20 19 18 16 13 11 9 9 8 7 6 5 5 5 5 5 5 5 6 7 7 7 7 6 5 5 6 5 5 4
Wind_Direction
252 250 260 275 285 300 307 307 312 310 288 292 302 271 135 150 169 158 155 159 166 171 159 151 150 151 144 140 143 146 147 149 151 150 154 151 151 164 137 128 126 120 98 84
256 255 261 276 294 292 293 300 306 300 296 289 288 264 124 143 199 164 159 160 166 163 164 161 155 156 154 151 150 152 153 156 160 153 154 152 146 166 134 115 130 138 135 149
247 260 266 274 282 290 297 305 307 309 303 298 286 229 146 161 186 168 163 162 165 168 167 167 168 167 164 160 162 165 161 159 163 159 164 154 141 185 142 142 155 157 152 126
257 266 270 273 278 288 299 308 310 309 312 322 319 271 163 189 182 173 165 163 164 165 165 169 170 172 172 166 164 159 156 159 163 172 177 172 179 186 159 161 151 159 169 170
258 259 262 265 274 288 299 309 305 317 333 337 312 295 158 180 178 173 164 163 161 164 166 170 173 175 176 169 166 160 157 162 167 181 185 188 192 181 157 153 144 167 171 188
265 270 272 274 278 282 290 296 295 315 338 300 271 270 160 165 165 161 155 154 155 160 164 167 173 172 175 171 166 161 160 167 173 188 189 201 213 186 157 162 158 187 174 185
255 261 263 263 266 270 281 290 297 308 287 247 253 254 122 120 125 138 145 149 156 160 165 168 173 176 175 171 169 166 167 175 181 190 192 197 208 203 193 199 185 206 189 183
251 251 251 252 258 269 274 279 293 309 307 302 304 354 109 105 107 124 139 147 157 164 167 171 175 176 177 176 175 172 174 179 184 190 192 194 197 206 209 214 213 208 224 180
254 260 256 244 244 253 269 277 288 284 288 300 68 40 96 99 117 131 142 152 162 166 169 171 173 176 179 182 181 178 174 178 185 190 189 195 199 214 222 200 209 219 210 167
247 262 264 252 249 250 255 279 293 297 305 310 49 70 279 259 192 156 153 154 161 165 170 172 173 177 177 180 179 176 173 179 186 191 192 199 202 210 221 225 214 219 206 189
238 251 260 256 244 255 263 259 268 284 291 299 303 162 189 206 207 181 153 151 161 168 173 173 174 176 176 178 177 178 176 181 189 196 198 206 196 204 209 217 224 221 213 195
236 243 253 256 257 263 270 270 262 258 271 283 301 126 184 203 179 161 149 149 159 167 170 169 168 169 173 175 177 177 179 187 193 198 197 202 203 204 206 210 215 216 211 206
254 238 244 248 246 301 282 267 265 262 262 271 286 157 142 24 47 104 123 136 145 153 151 148 155 164 169 173 176 179 183 191 195 197 198 199 202 207 211 214 213 212 211 212
285 247 240 250 230 182 241 259 259 253 254 259 272 155 144 97 83 95 111 121 126 130 124 129 131 139 154 162 167 173 186 191 192 193 194 196 201 207 211 214 216 213 211 213
274 252 243 246 219 197 223 239 243 241 250 261 221 160 150 151 157 135 113 105 103 105 104 103 106 114 118 122 128 133 134 133 145 147 163 178 191 202 211 217 220 219 220 223
291 270 265 250 231 216 226 226 223 227 237 247 197 126 127 131 121 115 108 104 96 88 82 80 76 76 77 83 92 96 90 83 81 81 73 67 79 101 235 246 242 233 231 236
301 299 268 258 251 240 239 236 229 228 230 235 184 136 128 119 115 108 101 98 96 88 77 73 73 68 64 60 60 66 66 67 65 59 50 42 41 37 35 12 351 315 274 256
253 290 280 254 245 245 251 259 270 247 198 141 123 130 124 113 99 89 92 94 90 88 84 80 76 69 64 64 67 68 68 64 63 58 50 43 38 33 32 33 19 8 356 341
200 215 249 251 240 243 249 6 358 344 212 134 126 121 119 115 106 93 92 94 92 88 84 80 78 73 66 62 64 67 66 65 63 57 51 46 43 38 32 29 21 16 7 352
213 215 224 241 238 238 204 28 349 41 295 122 131 135 138 143 127 119 110 103 98 93 89 86 82 77 71 65 66 68 64 59 55 50 47 43 38 40 39 27 14 6 355 344
218 221 225 233 237 144 72 173 177 185 150 123 134 143 151 147 121 125 117 108 102 97 91 86 82 76 71 69 70 69 65 59 53 48 41 34 23 23 43 28 2 346 342 330
286 247 233 240 243 147 2 150 159 126 119 124 125 128 120 114 118 119 117 113 109 103 97 91 85 79 72 69 73 72 63 55 50 46 38 25 14 7 15 1 342 324 315 313
334 346 347 20 91 65 37 70 45 113 99 107 116 119 122 123 123 122 119 115 108 102 99 98 96 91 83 75 71 72 65 53 47 37 21 360 340 326 338 334 326 322 329 339
348 341 27 49 45 29 21 68 95 90 98 112 119 124 125 124 123 121 116 111 106 101 99 97 96 95 90 82 74 70 56 33 22 12 349 318 298 305 334 320 314 330 338 344
183 272 228 127 127 111 3 54 75 94 104 110 114 118 120 121 120 117 113 110 106 99 93 89 87 89 90 84 70 59 48 24 2 347 334 321 320 327 311 293 293 296 292 281
86 50 66 88 165 131 111 103 107 103 103 107 110 111 114 115 116 114 109 105 103 100 92 86 81 78 81 84 80 68 49 22 355 343 339 332 330 336 330 322 319 302 283 248
Height
1490 1489 1486 1478 1473 1472 1471 1472 1473 1468 1459 1461 1464 1468 1471 1477 1480 1484 1489 1493 1496 1499 1501 1504 1508 1512 1515 1519 1524 1528 1533 1536 1540 1543 1546 1549 1551 1554 1555 1555 1555 1556 1556 1557
1489 1485 1475 1470 1468 1469 1469 1472 1471 1463 1457 1458 1462 1467 1470 1477 1480 1483 1487 1491 1495 1498 1501 1504 1507 1511 1514 1518 1522 1527 1532 1535 1538 1542 1546 1548 1551 1553 1554 1555 1555 1556 1556 1557
1484 1475 1468 1468 1469 1469 1468 1469 1467 1465 1457 1455 1462 1473 1475 1475 1478 1482 1485 1489 1493 1497 1500 1503 1507 1510 1514 1518 1522 1526 1530 1534 1538 1541 1545 1548 1550 1552 1554 1554 1554 1555 1556 1556
1475 1467 1466 1467 1468 1467 1470 1459 1459 1460 1466 1471 1470 1486 1480 1475 1475 1478 1482 1487 1491 1495 1499 1503 1506 1510 1514 1518 1521 1525 1529 1532 1536 1540 1544 1546 1549 1551 1553 1553 1554 1554 1555 1556
1472 1466 1465 1467 1465 1461 1462 1456 1458 1463 1474 1487 1483 1485 1483 1474 1476 1475 1478 1483 1489 1494 1498 1501 1505 1509 1513 1517 1520 1524 1527 1531 1535 1539 1543 1545 1548 1550 1552 1553 1553 1553 1554 1555
1467 1462 1460 1460 1457 1456 1455 1458 1460 1468 1483 1506 1491 1488 1484 1470 1468 1470 1474 1481 1487 1492 1496 1501 1505 1508 1512 1516 1519 1523 1526 1530 1534 1538 1541 1544 1547 1549 1550 1551 1552 1552 1553 1553
1472 1463 1457 1456 1458 1456 1457 1469 1481 1488 1503 1504 1481 1480 1478 1462 1459 1465 1472 1479 1485 1490 1495 1499 1503 1507 1510 1514 1518 1521 1524 1528 1532 1536 1539 1541 1544 1546 1548 1550 1551 1551 1552 1552
1475 1472 1456 1453 1457 1459 1458 1464 1484 1497 1493 1486 1483 1486 1472 1460 1461 1465 1471 1478 1483 1488 1493 1497 1501 1505 1508 1512 1516 1519 1523 1526 1530 1533 1537 1539 1542 1544 1546 1548 1549 1550 1551 1552
1468 1465 1448 1447 1448 1451 1458 1459 1456 1470 1471 1480 1486 1484 1471 1464 1463 1466 1471 1476 1481 1486 1491 1495 1499 1503 1506 1510 1514 1517 1521 1524 1528 1531 1534 1537 1539 1542 1544 1546 1547 1548 1550 1550
1454 1462 1450 1445 1445 1446 1449 1452 1458 1468 1483 1488 1487 1493 1492 1476 1471 1467 1470 1474 1479 1484 1488 1493 1497 1500 1504 1508 1512 1516 1519 1522 1525 1528 1531 1534 1536 1539 1541 1543 1545 1546 1548 1549
1444 1455 1452 1446 1451 1456 1454 1457 1459 1461 1465 1482 1493 1498 1475 1473 1468 1467 1468 1472 1477 1481 1486 1490 1494 1498 1503 1506 1510 1514 1518 1520 1523 1526 1529 1532 1534 1536 1538 1539 1541 1543 1544 1545
1437 1445 1453 1448 1442 1446 1451 1457 1458 1470 1471 1467 1474 1486 1464 1465 1462 1463 1466 1471 1475 1480 1483 1487 1492 1496 1500 1505 1508 1512 1515 1518 1521 1523 1526 1528 1531 1533 1534 1536 1537 1539 1540 1541
1435 1442 1458 1459 1456 1455 1458 1455 1454 1454 1458 1465 1475 1483 1463 1465 1463 1464 1467 1471 1475 1479 1483 1486 1490 1494 1498 1503 1507 1510 1512 1515 1517 1520 1522 1524 1526 1528 1530 1532 1533 1535 1536 1537
1437 1439 1449 1459 1458 1463 1467 1460 1451 1454 1459 1464 1468 1473 1468 1470 1469 1469 1470 1472 1475 1479 1482 1486 1489 1493 1497 1500 1504 1507 1510 1512 1514 1516 1518 1520 1522 1525 1526 1528 1529 1530 1531 1533
1440 1443 1439 1438 1440 1448 1454 1454 1449 1450 1449 1455 1456 1461 1466 1469 1470 1471 1473 1474 1477 1481 1484 1486 1489 1493 1495 1498 1502 1505 1507 1509 1511 1513 1514 1515 1518 1521 1522 1523 1524 1526 1527 1528
1445 1447 1442 1438 1435 1440 1445 1442 1441 1441 1441 1443 1447 1459 1460 1465 1469 1472 1474 1476 1480 1483 1486 1488 1490 1493 1495 1497 1499 1502 1504 1506 1508 1510 1511 1512 1513 1515 1518 1519 1520 1521 1523 1523
1452 1456 1456 1449 1437 1437 1445 1434 1433 1435 1435 1439 1448 1455 1459 1466 1470 1474 1476 1479 1483 1487 1489 1490 1492 1493 1495 1497 1499 1500 1503 1504 1506 1508 1510 1512 1513 1514 1515 1516 1517 1517 1518 1519
1458 1465 1464 1453 1448 1459 1440 1425 1427 1431 1432 1435 1443 1449 1459 1467 1474 1478 1481 1484 1487 1490 1492 1494 1495 1496 1498 1499 1500 1501 1503 1505 1507 1509 1510 1511 1512 1513 1513 1513 1513 1513 1514 1515
1453 1465 1473 1460 1455 1450 1436 1436 1437 1439 1440 1435 1444 1453 1463 1470 1476 1483 1486 1488 1491 1493 1495 1497 1499 1500 1501 1502 1503 1504 1505 1507 1508 1510 1511 1511 1512 1512 1512 1511 1511 1511 1511 1511
1450 1456 1463 1458 1458 1458 1444 1442 1440 1443 1450 1438 1445 1454 1462 1468 1476 1487 1490 1492 1494 1497 1499 1501 1502 1503 1504 1505 1506 1507 1508 1509 1511 1512 1512 1512 1512 1511 1510 1511 1510 1510 1510 1510
1450 1451 1451 1450 1449 1445 1443 1443 1444 1457 1455 1445 1448 1454 1461 1466 1474 1485 1490 1494 1497 1500 1502 1503 1505 1506 1507 1509 1509 1509 1510 1511 1512 1513 1513 1513 1512 1511 1511 1511 1510 1509 1509 1508
1454 1449 1444 1441 1449 1458 1448 1447 1450 1449 1444 1445 1449 1456 1463 1469 1478 1485 1491 1496 1499 1502 1504 1506 1508 1509 1511 1512 1512 1512 1512 1513 1514 1514 1514 1514 1513 1512 1512 1511 1510 1510 1509 1508
1456 1455 1453 1452 1456 1453 1450 1448 1448 1446 1445 1449 1454 1460 1466 1473 1481 1487 1493 1498 1502 1504 1507 1509 1511 1512 1513 1514 1514 1515 1515 1515 1515 1515 1515 1515 1514 1514 1513 1512 1511 1510 1509 1507
1454 1453 1453 1453 1453 1452 1451 1450 1448 1448 1450 1454 1458 1464 1469 1476 1484 1490 1495 1500 1504 1507 1509 1512 1513 1515 1516 1517 1517 1517 1517 1517 1517 1517 1516 1516 1515 1514 1513 1511 1510 1509 1508 1506
1454 1454 1453 1453 1453 1454 1452 1453 1454 1455 1456 1459 1464 1469 1475 1480 1487 1493 1498 1502 1506 1509 1512 1514 1515 1517 1518 1518 1519 1519 1519 1519 1518 1518 1517 1516 1515 1514 1512 1511 1509 1507 1506 1505
1451 1451 1452 1455 1453 1452 1455 1456 1457 1459 1462 1466 1470 1475 1481 1485 1491 1496 1500 1504 1508 1511 1513 1515 1516 1518 1519 1520 1520 1520 1520 1519 1519 1518 1517 1516 1514 1513 1511 1509 1507 1505 1504 1501